Hourly Data Report for October 11, 2014

All times are specified in Local Standard Time (LST). Add 1 hour to adjust for Daylight Saving Time where and when it is observed.

BAKER LAKE A
NUNAVUT

64°17'56.000" N
96°04'40.000" W
18.60 m
2300503
71926
YBK

Download Data

Hourly Data (October 2014)
Hourly Data Report for October 11, 2014
Temp Definition
°C
Dew Point Temp Definition
°C
Rel Hum Definition
%
Wind Dir Definition
10's deg

Wind Spd Definition
km/h
Visibility Definition
km
Stn Press Definition
kPa
Hmdx Definition


Wind Chill Definition


Weather Definition


TIME
00:00 Legend Double Dagger -3.1 -5.9 81 34 19 24.1 100.55   -9 Cloudy
01:00 Legend Double Dagger -3.9 -6.4 83 34 20 24.1 100.51   -10 LegendNANA
02:00 Legend Double Dagger -3.8 -6.3 83 1 16 24.1 100.46   -9 LegendNANA
03:00 Legend Double Dagger -3.5 -6.0 83 1 15 24.1 100.43   -9 Mostly Cloudy
04:00 Legend Double Dagger -3.0 -6.0 80 1 23 24.1 100.39   -9 LegendNANA
05:00 Legend Double Dagger -2.9 -5.6 82 33 16 24.1 100.32   -8 LegendNANA
06:00 Legend Double Dagger -2.6 -4.8 85 36 16 24.1 100.26   -8 Cloudy
07:00 Legend Double Dagger -3.2 -6.7 77 35 24 32.2 100.21   -10 LegendNANA
08:00 Legend Double Dagger -3.1 -6.9 75 34 23 32.2 100.15   -10 LegendNANA
09:00 Legend Double Dagger -2.9 -6.9 74 1 17 32.2 100.11   -8 Mostly Cloudy
10:00 Legend Double Dagger -2.8 -6.6 75 36 19 32.2 100.05   -9 LegendNANA
11:00 Legend Double Dagger -2.8 -7.2 72 3 16 32.2 100.02   -8 LegendNANA
12:00 Legend Double Dagger -2.5 -6.5 74 36 21 32.2 100.02   -9 Mostly Cloudy
13:00 Legend Double Dagger -2.6 -6.6 74 1 18 32.2 99.97   -8 LegendNANA
14:00 Legend Double Dagger -3.7 -6.8 79 36 21 32.2 99.95   -10 LegendNANA
15:00 Legend Double Dagger -4.1 -7.4 78 2 26 32.2 99.92   -11 Mostly Cloudy
16:00 Legend Double Dagger -4.1 -8.1 74 2 23 32.2 99.92   -11 LegendNANA
17:00 Legend Double Dagger -4.3 -7.4 79 1 17 32.2 99.92   -10 LegendNANA
18:00 Legend Double Dagger -4.6 -7.9 78 1 19 24.1 99.91   -11 Cloudy
19:00 Legend Double Dagger -5.1 -8.0 80 36 16 24.1 99.91   -11 Snow
20:00 Legend Double Dagger -6.0 -9.1 79 3 13 24.1 99.89   -11 LegendNANA
21:00 Legend Double Dagger -6.3 -9.4 79 3 13 24.1 99.87   -12 Mostly Cloudy
22:00 Legend Double Dagger -6.4 -9.0 82 2 9 24.1 99.89   -11 LegendNANA
23:00 Legend Double Dagger -6.9 -8.9 86 36 7 24.1 99.88   -10 LegendNANA

Notes on Data Quality.

Legend

  • E = Estimated
  • M = Missing
  • NA = Not Available
  • ‡ = Partner data that is not subject to review by the National Climate Archives
Date modified: